Time,TemperatureF,DewpointF,PressureIn,WindDirection,WindDirectionDegrees,WindSpeedMPH,WindSpeedGustMPH,Humidity,HourlyPrecipIn,Conditions,Clouds,dailyrainin,SoftwareType,DateUTC
2013-02-16 00:12:00,31.8,30.0,29.95,SE,144,0.0,0.0,93,0.00,,,0.00,weatherlink.com 1.10,2013-02-16 05:12:00,
2013-02-16 00:27:00,31.7,30.0,29.96,SE,144,0.0,0.0,93,0.00,,,0.00,weatherlink.com 1.10,2013-02-16 05:27:00,
2013-02-16 00:42:00,31.6,30.0,29.95,SE,144,0.0,0.0,94,0.00,,,0.00,weatherlink.com 1.10,2013-02-16 05:42:00,
2013-02-16 00:57:00,31.5,30.0,29.95,SE,144,0.0,0.0,94,0.00,,,0.00,weatherlink.com 1.10,2013-02-16 05:57:00,
2013-02-16 01:12:00,31.4,30.0,29.94,SE,144,0.0,0.0,94,0.00,,,0.00,weatherlink.com 1.10,2013-02-16 06:12:00,
2013-02-16 01:27:00,31.2,30.0,29.95,SSE,161,0.0,0.0,94,0.00,,,0.00,weatherlink.com 1.10,2013-02-16 06:27:00,
2013-02-16 01:42:00,30.9,29.0,29.94,SSE,161,0.0,0.0,94,0.00,,,0.00,weatherlink.com 1.10,2013-02-16 06:42:00,
2013-02-16 01:57:00,30.8,29.0,29.94,SSE,161,0.0,0.0,94,0.00,,,0.00,weatherlink.com 1.10,2013-02-16 06:57:00,
2013-02-16 02:12:00,30.6,29.0,29.93,SSE,161,0.0,0.0,94,0.00,,,0.00,weatherlink.com 1.10,2013-02-16 07:12:00,
2013-02-16 02:27:00,30.2,29.0,29.93,SSE,161,0.0,0.0,94,0.00,,,0.00,weatherlink.com 1.10,2013-02-16 07:27:00,
2013-02-16 02:42:00,29.9,28.0,29.92,SSE,161,0.0,0.0,93,0.00,,,0.00,weatherlink.com 1.10,2013-02-16 07:42:00,
2013-02-16 02:57:00,29.7,28.0,29.92,SE,140,0.0,0.0,94,0.00,,,0.00,weatherlink.com 1.10,2013-02-16 07:57:00,
2013-02-16 03:12:00,29.7,28.0,29.92,SE,140,0.0,0.0,94,0.00,,,0.00,weatherlink.com 1.10,2013-02-16 08:12:00,
2013-02-16 03:27:00,29.5,28.0,29.92,SE,140,0.0,0.0,93,0.00,,,0.00,weatherlink.com 1.10,2013-02-16 08:27:00,
2013-02-16 03:42:00,29.5,28.0,29.92,SE,140,0.0,0.0,93,0.00,,,0.00,weatherlink.com 1.10,2013-02-16 08:42:00,
2013-02-16 03:57:00,29.0,27.0,29.91,SE,140,0.0,0.0,93,0.00,,,0.00,weatherlink.com 1.10,2013-02-16 08:57:00,
2013-02-16 04:12:00,28.8,27.0,29.91,SE,140,0.0,0.0,93,0.00,,,0.00,weatherlink.com 1.10,2013-02-16 09:12:00,
2013-02-16 04:27:00,28.5,27.0,29.91,SE,139,0.0,0.0,94,0.00,,,0.00,weatherlink.com 1.10,2013-02-16 09:27:00,
2013-02-16 04:42:00,28.4,27.0,29.91,SE,139,0.0,0.0,94,0.00,,,0.00,weatherlink.com 1.10,2013-02-16 09:42:00,
2013-02-16 04:57:00,28.1,27.0,29.91,SE,139,0.0,0.0,94,0.00,,,0.00,weatherlink.com 1.10,2013-02-16 09:57:00,
2013-02-16 05:12:00,27.9,26.0,29.90,SE,139,0.0,0.0,94,0.00,,,0.00,weatherlink.com 1.10,2013-02-16 10:12:00,
2013-02-16 05:27:00,27.3,26.0,29.91,SE,141,0.0,0.0,94,0.00,,,0.00,weatherlink.com 1.10,2013-02-16 10:27:00,
2013-02-16 05:42:00,27.2,26.0,29.91,SE,141,0.0,0.0,94,0.00,,,0.00,weatherlink.com 1.10,2013-02-16 10:42:00,
2013-02-16 05:57:00,27.0,26.0,29.91,SE,141,0.0,0.0,94,0.00,,,0.00,weatherlink.com 1.10,2013-02-16 10:57:00,
2013-02-16 06:12:00,26.6,25.0,29.92,SE,142,0.0,0.0,92,0.00,,,0.00,weatherlink.com 1.10,2013-02-16 11:12:00,
2013-02-16 06:27:00,26.3,23.0,29.92,ENE,69,0.0,0.0,86,0.00,,,0.00,weatherlink.com 1.10,2013-02-16 11:27:00,
2013-02-16 06:42:00,26.0,23.0,29.92,ESE,108,0.0,0.0,87,0.00,,,0.00,weatherlink.com 1.10,2013-02-16 11:42:00,
2013-02-16 06:57:00,25.5,23.0,29.93,SE,132,0.0,0.0,90,0.00,,,0.00,weatherlink.com 1.10,2013-02-16 11:57:00,
2013-02-16 07:12:00,25.5,22.0,29.92,SE,134,0.0,0.0,87,0.00,,,0.00,weatherlink.com 1.10,2013-02-16 12:12:00,
2013-02-16 07:27:00,25.6,22.0,29.92,SE,134,0.0,0.0,87,0.00,,,0.00,weatherlink.com 1.10,2013-02-16 12:27:00,
2013-02-16 07:42:00,25.7,22.0,29.93,ESE,121,0.0,0.0,86,0.00,,,0.00,weatherlink.com 1.10,2013-02-16 12:42:00,
2013-02-16 07:57:00,26.0,22.0,29.93,ESE,121,0.0,0.0,85,0.00,,,0.00,weatherlink.com 1.10,2013-02-16 12:57:00,
2013-02-16 08:12:00,26.2,22.0,29.93,NE,46,0.0,0.0,84,0.00,,,0.00,weatherlink.com 1.10,2013-02-16 13:12:00,
2013-02-16 08:27:00,26.4,22.0,29.93,East,90,0.0,0.0,83,0.00,,,0.00,weatherlink.com 1.10,2013-02-16 13:27:00,
2013-02-16 08:42:00,26.7,22.0,29.93,SE,137,0.0,0.0,82,0.00,,,0.00,weatherlink.com 1.10,2013-02-16 13:42:00,
2013-02-16 08:57:00,27.2,22.0,29.93,SE,137,0.0,0.0,80,0.00,,,0.00,weatherlink.com 1.10,2013-02-16 13:57:00,
2013-02-16 09:12:00,27.6,22.0,29.93,South,189,0.0,0.0,80,0.00,,,0.00,weatherlink.com 1.10,2013-02-16 14:12:00,
2013-02-16 09:27:00,28.1,22.0,29.93,ESE,103,1.0,3.0,77,0.00,,,0.00,weatherlink.com 1.10,2013-02-16 14:27:00,
2013-02-16 09:42:00,28.2,21.0,29.93,SSW,200,0.0,2.0,75,0.00,,,0.00,weatherlink.com 1.10,2013-02-16 14:42:00,
2013-02-16 09:57:00,28.5,22.0,29.92,South,182,1.0,2.0,75,0.00,,,0.00,weatherlink.com 1.10,2013-02-16 14:57:00,
2013-02-16 10:12:00,28.5,21.0,29.93,South,186,0.0,3.0,73,0.00,,,0.00,weatherlink.com 1.10,2013-02-16 15:12:00,
2013-02-16 10:27:00,29.0,21.0,29.92,ESE,121,0.0,2.0,72,0.01,,,0.01,weatherlink.com 1.10,2013-02-16 15:27:00,
2013-02-16 10:43:00,29.2,20.0,29.92,East,101,2.0,3.0,68,0.01,,,0.01,weatherlink.com 1.10,2013-02-16 15:43:00,
2013-02-16 10:58:00,29.3,20.0,29.91,South,173,2.0,4.0,68,0.01,,,0.01,weatherlink.com 1.10,2013-02-16 15:58:00,
2013-02-16 11:13:00,30.1,20.0,29.91,SSE,154,0.0,3.0,67,0.01,,,0.01,weatherlink.com 1.10,2013-02-16 16:13:00,
2013-02-16 11:28:00,30.4,19.0,29.91,South,180,2.0,3.0,64,0.00,,,0.01,weatherlink.com 1.10,2013-02-16 16:28:00,
2013-02-16 11:43:00,30.4,20.0,29.90,South,188,4.0,4.0,65,0.00,,,0.01,weatherlink.com 1.10,2013-02-16 16:43:00,
2013-02-16 11:58:00,30.6,19.0,29.89,South,176,1.0,4.0,62,0.01,,,0.02,weatherlink.com 1.10,2013-02-16 16:58:00,
2013-02-16 12:13:00,30.7,19.0,29.89,South,169,2.0,7.0,61,0.02,,,0.03,weatherlink.com 1.10,2013-02-16 17:13:00,
2013-02-16 12:28:00,31.5,19.0,29.88,SE,138,2.0,5.0,61,0.02,,,0.03,weatherlink.com 1.10,2013-02-16 17:28:00,
2013-02-16 12:43:00,31.9,18.0,29.87,ESE,105,0.0,5.0,58,0.02,,,0.03,weatherlink.com 1.10,2013-02-16 17:43:00,
2013-02-16 12:58:00,32.9,20.0,29.87,SSE,159,1.0,8.0,59,0.02,,,0.04,weatherlink.com 1.10,2013-02-16 17:58:00,
2013-02-16 13:13:00,32.3,18.0,29.86,SSE,163,1.0,8.0,55,0.01,,,0.04,weatherlink.com 1.10,2013-02-16 18:13:00,
2013-02-16 13:28:00,32.1,19.0,29.86,South,173,1.0,8.0,59,0.02,,,0.05,weatherlink.com 1.10,2013-02-16 18:28:00,
2013-02-16 13:43:00,32.1,18.0,29.86,South,172,1.0,7.0,57,0.02,,,0.05,weatherlink.com 1.10,2013-02-16 18:43:00,
2013-02-16 13:58:00,31.8,17.0,29.86,South,169,2.0,7.0,55,0.01,,,0.05,weatherlink.com 1.10,2013-02-16 18:58:00,
2013-02-16 14:13:00,30.7,17.0,29.86,South,173,0.0,5.0,58,0.01,,,0.05,weatherlink.com 1.10,2013-02-16 19:13:00,
2013-02-16 14:28:00,30.7,18.0,29.85,North,5,1.0,4.0,60,0.00,,,0.05,weatherlink.com 1.10,2013-02-16 19:28:00,
2013-02-16 14:43:00,30.7,18.0,29.85,SE,143,1.0,3.0,59,0.00,,,0.05,weatherlink.com 1.10,2013-02-16 19:43:00,
2013-02-16 14:58:00,30.5,16.0,29.85,WSW,257,0.0,6.0,56,0.00,,,0.05,weatherlink.com 1.10,2013-02-16 19:58:00,
2013-02-16 15:13:00,30.2,16.0,29.84,East,92,0.0,3.0,56,0.00,,,0.05,weatherlink.com 1.10,2013-02-16 20:13:00,
2013-02-16 15:28:00,29.7,17.0,29.84,NNW,343,1.0,5.0,59,0.00,,,0.05,weatherlink.com 1.10,2013-02-16 20:28:00,
2013-02-16 15:43:00,29.2,17.0,29.85,ESE,113,1.0,6.0,60,0.00,,,0.05,weatherlink.com 1.10,2013-02-16 20:43:00,
2013-02-16 15:58:00,28.9,17.0,29.85,ESE,112,3.0,3.0,62,0.00,,,0.05,weatherlink.com 1.10,2013-02-16 20:58:00,
2013-02-16 16:13:00,28.6,17.0,29.85,SE,138,0.0,2.0,63,0.00,,,0.05,weatherlink.com 1.10,2013-02-16 21:13:00,
2013-02-16 16:28:00,28.3,16.0,29.86,East,88,0.0,3.0,60,0.00,,,0.05,weatherlink.com 1.10,2013-02-16 21:28:00,
2013-02-16 16:43:00,28.1,16.0,29.86,East,93,1.0,3.0,60,0.00,,,0.05,weatherlink.com 1.10,2013-02-16 21:43:00,
2013-02-16 16:58:00,27.5,16.0,29.86,ESE,107,0.0,4.0,61,0.00,,,0.05,weatherlink.com 1.10,2013-02-16 21:58:00,
2013-02-16 17:13:00,27.3,16.0,29.86,NW,304,0.0,3.0,62,0.00,,,0.05,weatherlink.com 1.10,2013-02-16 22:13:00,
2013-02-16 17:28:00,27.0,15.0,29.86,East,84,1.0,2.0,62,0.00,,,0.05,weatherlink.com 1.10,2013-02-16 22:28:00,
2013-02-16 17:43:00,26.6,15.0,29.86,ENE,71,1.0,4.0,62,0.00,,,0.05,weatherlink.com 1.10,2013-02-16 22:43:00,
2013-02-16 17:58:00,26.3,15.0,29.86,ESE,117,0.0,3.0,62,0.00,,,0.05,weatherlink.com 1.10,2013-02-16 22:58:00,
2013-02-16 18:13:00,26.0,14.0,29.86,SE,140,0.0,2.0,62,0.00,,,0.05,weatherlink.com 1.10,2013-02-16 23:13:00,
2013-02-16 18:28:00,26.0,15.0,29.85,SSE,165,0.0,2.0,64,0.00,,,0.05,weatherlink.com 1.10,2013-02-16 23:28:00,
2013-02-16 18:43:00,25.9,14.0,29.86,South,176,0.0,2.0,62,0.00,,,0.05,weatherlink.com 1.10,2013-02-16 23:43:00,
2013-02-16 18:58:00,25.8,14.0,29.86,SSE,153,1.0,3.0,61,0.00,,,0.05,weatherlink.com 1.10,2013-02-16 23:58:00,
2013-02-16 19:13:00,25.7,14.0,29.85,SSW,200,0.0,2.0,62,0.00,,,0.05,weatherlink.com 1.10,2013-02-17 00:13:00,
2013-02-16 19:28:00,25.6,12.0,29.85,NE,36,0.0,3.0,57,0.00,,,0.05,weatherlink.com 1.10,2013-02-17 00:28:00,
2013-02-16 19:43:00,25.4,12.0,29.85,SW,219,1.0,3.0,56,0.00,,,0.05,weatherlink.com 1.10,2013-02-17 00:43:00,
2013-02-16 19:58:00,25.4,12.0,29.84,ESE,103,0.0,2.0,58,0.00,,,0.05,weatherlink.com 1.10,2013-02-17 00:58:00,
2013-02-16 20:13:00,25.2,11.0,29.83,East,94,0.0,3.0,56,0.00,,,0.05,weatherlink.com 1.10,2013-02-17 01:13:00,
2013-02-16 20:28:00,25.1,11.0,29.83,East,92,2.0,5.0,56,0.00,,,0.05,weatherlink.com 1.10,2013-02-17 01:28:00,
2013-02-16 20:58:00,24.8,11.0,29.82,East,90,0.0,4.0,55,0.00,,,0.05,weatherlink.com 1.10,2013-02-17 01:58:00,
2013-02-16 21:13:00,24.7,11.0,29.83,East,87,5.0,6.0,55,0.00,,,0.05,weatherlink.com 1.10,2013-02-17 02:13:00,
2013-02-16 21:28:00,24.7,11.0,29.81,NE,52,2.0,5.0,56,0.00,,,0.05,weatherlink.com 1.10,2013-02-17 02:28:00,
2013-02-16 21:43:00,24.6,10.0,29.81,SSW,204,0.0,3.0,55,0.00,,,0.05,weatherlink.com 1.10,2013-02-17 02:43:00,
2013-02-16 21:58:00,24.6,11.0,29.81,West,259,0.0,8.0,56,0.00,,,0.05,weatherlink.com 1.10,2013-02-17 02:58:00,
2013-02-16 22:14:00,24.4,11.0,29.81,WSW,254,6.0,8.0,56,0.00,,,0.05,weatherlink.com 1.10,2013-02-17 03:14:00,
2013-02-16 22:29:00,24.3,11.0,29.80,South,174,2.0,6.0,57,0.00,,,0.05,weatherlink.com 1.10,2013-02-17 03:29:00,
2013-02-16 22:44:00,24.2,12.0,29.80,SW,232,6.0,6.0,60,0.00,,,0.05,weatherlink.com 1.10,2013-02-17 03:44:00,
2013-02-16 22:59:00,24.0,12.0,29.80,ENE,63,3.0,7.0,60,0.00,,,0.05,weatherlink.com 1.10,2013-02-17 03:59:00,
2013-02-16 23:14:00,23.8,12.0,29.79,South,169,1.0,7.0,60,0.00,,,0.05,weatherlink.com 1.10,2013-02-17 04:14:00,
2013-02-16 23:29:00,23.7,12.0,29.77,ESE,121,2.0,5.0,60,0.00,,,0.05,weatherlink.com 1.10,2013-02-17 04:29:00,
2013-02-16 23:44:00,23.4,12.0,29.77,ENE,67,1.0,9.0,61,0.00,,,0.05,weatherlink.com 1.10,2013-02-17 04:44:00,
2013-02-16 23:59:00,23.1,12.0,29.76,SSE,162,1.0,3.0,63,0.00,,,0.05,weatherlink.com 1.10,2013-02-17 04:59:00,